Погода в Любашевке

Погода в Любашевке : погода сейчас, прогноз погоды и архив. Всё, что Вы хотите узнать о погоде в Любашевке!

Хотите узнать прогноз погоды в Любашевке? Тогда Вам сюда: Погода в Любашевке

Поиск расширенной информации на нашем сайте:

Полезная информация:

Другие новости

Новости СМИ2

Главная страница сайта

Новости сайта

03.07.2017

Напоминаем, что на нашем специализированном сайте Метеоцентр.Азия вы можете получить высокодетализированные автоматические прогнозы погоды по пунктам России, СНГ и мира в авиационном формате (включающие направление и скорость ветра, видимость, явления погоды, количество и форму облачности, нижнюю и верхнюю границу облачности).

Рекомендуем:

Погода в Любашевке - сегодня

Время (UTC), дата Ветер
(°,м/с) 
Видим.   Явления Облачность Т
(°С)
Тd
(°С)
f(%) Тe
(°С)
Pmin
(гПа)
dP
(гПа)
Po
(мм)
O2
(г/м3)
Тmin Tmax R s Состояние
почвы
03 15.08.19 300 (СЗ) 20000 м    3/1 600 м средняя 
[Sc|Ac trans]
+16 +11 72 +19  1008.3  -0.7  740  280           
06 15.08.19 360 (С) 20000 м    1/0 верхняя 
[Ci fib]
+20.6 +16.2 76 +32  1009.1  1.1  741  274  +15.4  +3.3       
09 15.08.19 340 (С) 20000 м    8/1 1000 м средняя, верхняя 
[Cu hum|Ac trans|Ci fib]
+25.8 +17.7 61 +40  1007.7  -1  740  269           
12 15.08.19 350 (С) 20000 м    9/0 средняя, верхняя 
[Ac und|Ci fib]
+23.2 +16.5 66 +35  1009.1  1.2  741  272           
15 15.08.19 350 (С) 20000 м    9/0 средняя, верхняя 
[Ac trans|Cc]
+22.4 +15.3 64 +32  1009.5  0.3  741  273           
18 15.08.19 340 (С) 20000 м    10/0 средняя 
[Ac und]
+18.2 +13.9 76 +26  1011.1  1.3  742  278    +26.2       
21 15.08.19 340 (С) 20000 м    10/0 средняя 
[Ac und]
+17.4 +12.7 74 +23  1011.7  0.5  743  279           
00 16.08.19 340 (С) 20000 м    10/0 средняя 
[Ac und]
+16.2 +12.3 78 +22  1011.7  -0.1  743  280           
03 16.08.19 320 (СЗ) 20000 м    10/10 600 м 
[Sc]
+14.6 +12.4 87 +21  1011.8  743  282           
06 16.08.19 340 (С) 20000 м    9/9 600 м 
[St]
+16.6 +13.5 82 +23  1012  0.3  743  279  +13.8         
09 16.08.19 350 (С) 20000 м    9/9 600 м кучево-дожд. 
[Cb calv]
+19.5 +13.7 69 +27  1011.4  -0.3  743  277           
12 16.08.19 340 (С) 20000 м    9/9 600 м кучево-дожд. 
[Cb calv]
+21.8 +11.5 52 +25  1011.5  0.2  743  275           
15 16.08.19 350 (С) 20000 м    9/6 600 м средняя 
[Sc|Ac trans]
+21.4 +11.4 53 +25  1011.7  0.2  743  276           
18 16.08.19 330 (СЗ) 20000 м    ясно 
+17.4 +9.8 61 +19  1013  0.9  744  280           
21 16.08.19 320 (СЗ) 20000 м    ясно 
+14 +9.4 74 +16  1013.8  0.6  744  284           
00 17.08.19 тихо ()   20000 м    3/0 верхняя 
[Ci fib]
+11.7 +8.8 82 +12  1013.9  -0.1  744  286           
03 17.08.19 тихо ()   10 км    6/0 верхняя 
[Ci fib]
+10.2 +8.3 88 +10  1013.8  -0.2  744  287           
06 17.08.19 330 (СЗ) 20000 м    3/0 средняя 
[Ac trans]
+16 +11 72 +19  1013.7  0.3  744  281  +10.1  +3       
09 17.08.19 350 (С) 20000 м    8/3 1000 м средняя 
[Cu med, cong|Ac trans]
+19.7 +10.7 56 +22  1012.8  -0.6  744  278           
12 17.08.19 340 (С) 20000 м    8/8 1000 м 
[Cu med, cong]
+22.6 +9 42 +23  1011.8  -0.8  743  275           
15 17.08.19 350 (С) 20000 м    6/4 600 м средняя 
[Sc diur, vesp|Ac trans]
+22.3 +10.1 46 +24  1012.3  0.5  743  275           
18 17.08.19 020 (С) 20000 м    3/0 средняя 
[Ac trans]
+17.9 +9.8 59 +20  1013.4  0.8  744  280    +23.5       
21 17.08.19 300 (СЗ) 20000 м    ясно 
+14.9 +10.3 74 +18  1013.9  0.2  744  282           
00 18.08.19 тихо ()   20000 м    ясно 
+11.8 +7.7 76 +12  1014.7  0.6  745  286           
03 18.08.19 тихо ()   10 км    ясно 
+10.3 +7.7 84 +10  1014.8  745  288           
Время (UTC), дата Ветер
(°,м/с) 
Видим.   Явления Облачность Т
(°С)
Тd
(°С)
f(%) Тe
(°С)
Pmin
(гПа)
dP
(гПа)
Po
(мм)
O2
(г/м3)
Тmin Tmax R s Состояние
почвы

Для получения пояснительной информации подведите курсор к названию столбца.

ПОГОДА в Любашевке - архив

Всё, что Вы хотите узнать о погоде в Любашевке - удобно и подробно!

Выберите нужную дату (начиная с 1 января 2018* года) и нажмите кнопку "Найти".
Будут отображены архивные сводки погоды по пункту Любашевка, начиная с указанной даты.


Отображать данные в формате CSV (для использования в таблицах Excel)


Внимание! Наш архив погоды предназначен исключительно для личного некоммерческого использования в познавательных целях. Если Вам необходимы официальные справки о состоянии погоды (для производственных, юридических, коммерческих и т.п. целей), обращайтесь в органы Росгидромета.

*Примечание: данная дата относится к архиву по метеостанциям СССР (Россия, СНГ, Балтия).
Архив по метеостанциям Зарубежной Европы и Азии (кроме Китая) хранится 10 дней, по другим регионам земного шара (Китай, Африка, Америка, Австралия, Океания) - 1 день.

Любашевка - район местоположения метеостанции


Название, широта, долгота, высота метеостанции:
Любашевка 47.9°ш. 30.3°д. 183 м над ур. моря [Украина]

Дополнительная информация

В oтличие oт бoльшинства пoгoдных сайтoв мы публикуем пoдрoбную метеoинфoрмацию в детальнoм прoфессиoнальнoм фoрмате.

Характеристики температуры и влажнoсти вoздуха измеряются на высoте 2 м в тени вдали oт зданий и деревьев.
Скoрoсть ветра измеряется на высoте 10 м (на урoвне рoста челoвека скoрoсть ветра ниже в 1.5-2 раза). Если метеoстанция нахoдится в гoрoде или в лесу, тo скoрoсть ветра занижена на 2-4 м/с пo сравнению с oткрытым местoм. Скoрoсть ветра над акватoриями крупных рек и oзёр, а также на вершинах хoлмoв на 2-5 м/с выше, чем в oбычных услoвиях.
Атмoсфернoе давление в разных тoчках местнoсти мoжет значительнo oтличаться oт давления на метеoстанции, в зависимoсти oт услoвий рельефа (при пoдъёме на 10 м давление пoнижается примернo на 1 мм рт.ст.).